Location: Alphaba - Cockrum - Ingrams Mill Volunteer Fire Department Station 2
(34.7915°N, 89.7598°W)
Time: 09:52:37
(UTC+00:00)

Meteor 1-25 Rocket - Pass Details

Date: 11 December 2025
Orbit: 837 x 889 km, 81.2° (Epoch: 24 January)

Event Time Altitude Azimuth Distance (km) Brightness Sun altitude
Rises 23:23:59 0° 355° (N) 3,493 7.2 -7.4°
Reaches altitude 10° 23:26:29 10° 359° (N) 2,546 6.5 -7.9°
Maximum altitude 23:32:14 62° 80° (E) 977 4.3 -9.0°
Drops below altitude 10° 23:37:51 10° 161° (SSE) 2,500 6.7 -10.1°
Sets 23:40:17 0° 164° (SSE) 3,425 7.4 -10.5°
